This demonstration page uses our WeatherBlox Daily Observations layout. Learn more.

Left ArrowRight Arrow

Hourly Observations for January 26, 2022

Temp ( °F °C ) Dew Point ( °F °C ) Humidity (%) Winds ( mph kmh ) Pressure ( in mb ) Visibility ( mi km ) Precip ( " mm )
12:53 am 00:53 Mostly Clear 37 2.8 16 -8.9 42 42 NNE 10 17 30.32 1027 10 16 0.00 0.00
1:53 am 01:53 Clear 36 2.2 15 -9.4 42 42 VRB 7 11 30.34 1027 10 16 0.00 0.00
2:53 am 02:53 Clear 34 1.1 14 -10 44 44 NE 9 15 30.35 1028 10 16 0.00 0.00
3:53 am 03:53 Mostly Clear 33 0.6 14 -10 45 45 NE 7 11 30.36 1028 10 16 0.00 0.00
4:53 am 04:53 Clear 32 0 15 -9.4 50 50 NE 8 13 30.37 1028 10 16 0.00 0.00
5:53 am 05:53 Mostly Clear 32 0 15 -9.4 50 50 NE 3 6 30.39 1029 10 16 0.00 0.00
6:53 am 06:53 Mostly Clear 31 -0.6 16 -8.9 54 54 VRB 5 7 30.40 1030 10 16 0.00 0.00
7:53 am 07:53 Mostly Sunny 30 -1.1 16 -8.9 56 56 VRB 3 6 30.42 1030 10 16 0.00 0.00
8:53 am 08:53 Mostly Sunny 35 1.7 17 -8.3 48 48 E 8 13 30.43 1030 10 16 0.00 0.00
9:53 am 09:53 Mostly Sunny 37 2.8 13 -10.6 37 37 VRB 7 11 30.42 1030 10 16 0.00 0.00
10:18 am 10:18 Mostly Sunny 37 3 12 -11 35 35 ESE 10 17 30.45 1031 10 16 0.00 0.00
10:53 am 10:53 Mostly Sunny 39 3.9 13 -10.6 34 34 E 7 11 30.43 1030 10 16 0.00 0.00
11:53 am 11:53 Mostly Sunny 41 5 13 -10.6 32 32 Calm 30.40 1030 10 16 0.00 0.00
12:53 pm 12:53 Mostly Sunny 44 6.7 12 -11.1 27 27 Calm 30.36 1028 10 16 0.00 0.00
1:53 pm 13:53 Mostly Sunny 47 8.3 12 -11.1 24 24 ENE 5 7 30.32 1027 10 16 0.00 0.00
2:53 pm 14:53 Mostly Sunny 49 9.4 12 -11.1 22 22 VRB 6 9 30.29 1026 10 16 0.00 0.00
3:53 pm 15:53 Mostly Sunny 49 9.4 13 -10.6 23 23 VRB 3 6 30.27 1025 10 16 0.00 0.00
4:53 pm 16:53 Mostly Sunny 49 9.4 13 -10.6 23 23 Calm 30.27 1025 10 16 0.00 0.00
5:53 pm 17:53 Mostly Cloudy 47 8.3 14 -10 26 26 E 6 9 30.26 1025 10 16 0.00 0.00
6:53 pm 18:53 Cloudy 47 8.3 15 -9.4 28 28 Calm 30.28 1025 10 16 0.00 0.00
7:53 pm 19:53 Cloudy 47 8.3 15 -9.4 28 28 Calm 30.30 1026 10 16 0.00 0.00
8:53 pm 20:53 Cloudy 46 7.8 16 -8.9 30 30 Calm 30.31 1026 10 16 0.00 0.00
9:53 pm 21:53 Cloudy 46 7.8 17 -8.3 31 31 E 6 9 30.29 1026 10 16 0.00 0.00
10:53 pm 22:53 Cloudy 46 7.8 18 -7.8 32 32 Calm 30.31 1026 10 16 0.00 0.00
11:43 pm 23:43 Cloudy 45 7.2 19 -7.2 35 35 ESE 9 15 30.29 1026 10 16 0.00 0.00
11:53 pm 23:53 Cloudy with Light Rain 45 7.2 20 -6.7 37 37 ESE 6 9 30.28 1026 10 16 0.00 0.00

Powered by AerisWeather